SCP
0 -0 -0 -0 -0 -0 -0 -0 -0 -0 -0 -0 -0 -0 -0 -0 0 0 0 0 0 0 0 -0 -0 -0 0 0 0 0 0 -0 0 0 0 -0 -0 -0 -0 -0 -0 -0 -0 0 -0 0 -0
0 -0 -0 -0 -0 -0 -0 -0 -0 -0 -0 -0 -0 -0 -0 0 0 0 0 0 -0 -0 -0 -0 -0 -0 0 -0 0 0 0 0 0 0 0 0 -0 0 -0 -0 -0 -0 -0 0 0 0 0
-0 -0 -0 -0 -0 -0 -0 -0 -0 -0 -0 -0 -0 -0 -0 -0 -0 -0 -0 -0 -0 -0 -0 -0 -0 -0 -0 0 0 0 0 -0 0 0 0 0 0 0 -0 -0 -0 -0 -0 0 0 0 0
-0 -0 -0 -0 -0 -0 0 0 0 -0 -0 -0 -0 -0 -0 -0 -0 -0 -0 -0 -0 -0 -0 -0 -0 -0 -0 0 0 -0 0 -0 0 0 0 -0 -0 0 0 -0 -0 -0 -0 -0 0 0 0
-0 -0 -0 -0 0 0 -0 0 0 0 0 0 -0 -0 -0 0 0 -0 -0 -0 -0 0 -0 -0 -0 -0 0 0 -0 0 0 0 -0 -0 0 0 -0 0 0 0 0 0 -0 -0 0 0 0
-0 -0 -0 -0 -0 0 0 -0 0 0 0 0 0 0 0 0 0 0 0 0 0 -0 -0 -0 0 0 0 0 0 -0 0 0 0 -0 0 -0 0 0 -0 0 -0 0 -0 -0 0 0 -0
-0 -0 -0 -0 -0 0 0 0 0 0 0 0 0 0 0 0 0 0 0 0 0 0 -0 0 0 0 0 0 0 -0 -0 0 0 -0 -0 -0 0 -0 0 0 -0 -0 0 0 0 0 0
-0 -0 -0 -0 -0 -0 0 0 -0 0 0 0 0 0 0 0 0 0 0 0 0 0 0 -0 -0 0 0 0 0 0 0 -0 0 -0 0 -0 0 0 0 0 0 0 0 -0 -0 0 0
-0 -0 -0 -0 -0 -0 -0 -0 -0 -0 -0 0 0 0 0 0 0 0 -0 0 0 0 0 0 -0 -0 -0 -0 -0 -0 -0 0 0 -0 0 0 -0 0 0 0 0 -0 -0 -0 -0 0 -0
-0 -0 -0 -0 -0 -0 -0 0 0 0 0 0 0 0 0 0 0 0 0 -0 0 0 0 0 0 -0 -0 -0 -0 0 0 0 -0 0 0 0 0 0 0 0 0 -0 0 -0 0 0 -0
-0 -0 -0 -0 -0 -0 -0 -0 0 0 0 0 0 0 0 -0 0 0 0 0 0 0 0 0 0 0 -0 -0 -0 -0 -0 -0 -0 0 -0 0 0 -0 0 0 0 0 0 -0 -0 -0 0
-0 -0 -0 -0 -0 -0 -0 -0 -0 -0 -0 -0 0 0 -0 -0 0 0 0 0 -0 0 0 0 0 -0 0 0 0 0 -0 -0 -0 -0 0 0 0 -0 -0 0 0 -0 -0 -0 -0 -0 -0
-0 -0 -0 -0 -0 -0 -0 -0 -0 -0 -0 -0 0 -0 -0 -0 0 0 0 -0 0 0 0 0 0 -0 -0 -0 0 0 -0 -0 -0 -0 -0 -0 -0 0 0 -0 -0 -0 -0 -0 0 -0 0
-0 -0 -0 -0 -0 -0 -0 -0 -0 -0 -0 -0 0 0 -0 0 0 0 -0 0 0 0 0 0 0 -0 0 -0 0 0 -0 -0 -0 -0 -0 0 -0 -0 0 -0 -0 0 -0 -0 0 -0 0
-0 -0 -0 -0 -0 -0 -0 -0 -0 -0 -0 -0 -0 0 0 0 0 0 0 0 0 0 0 -0 -0 -0 -0 0 0 0 -0 -0 -0 -0 0 -0 0 0 0 -0 0 0 -0 -0 -0 0 -0
-0 -0 -0 -0 -0 -0 -0 -0 -0 -0 -0 0 0 0 0 0 0 0 0 0 0 0 0 0 -0 -0 -0 -0 0 -0 -0 0 0 0 0 -0 -0 0 0 0 0 -0 0 -0 0 0 0
-0 -0 -0 -0 -0 -0 -0 -0 -0 -0 -0 0 -0 0 0 0 0 0 0 0 0 0 0 0 0 -0 0 -0 0 0 0 0 0 0 0 -0 0 0 0 0 0 0 0 0 -0 0 -0
-0 -0 -0 -0 -0 -0 -0 -0 -0 -0 -0 0 0 0 0 0 0 0 0 0 0 0 0 0 0 0 0 0 0 0 0 0 0 0 0 0 0 -0 0 0 0 0 -0 -0 0 0 0
-0 -0 -0 -0 -0 -0 -0 -0 -0 -0 -0 0 0 0 0 0 0 0 0 0 0 0 0 0 0 0 0 0 0 0 0 0 0 0 0 0 0 -0 -0 0 0 0 0 -0 0 0 0
-0 -0 -0 -0 -0 -0 -0 -0 -0 -0 -0 0 0 0 0 0 0 0 0 0 0 0 0 0 0 0 0 0 0 0 0 0 0 0 0 0 -0 0 -0 0 0 0 0 0 -0 -0 0
0 -0 -0 -0 -0 -0 -0 -0 -0 -0 -0 0 0 0 0 0 0 0 0 0 0 0 0 0 0 0 0 0 0 0 0 0 0 0 0 0 -0 -0 -0 0 0 0 -0 -0 0 -0 0
0 0 -0 -0 -0 -0 -0 -0 -0 -0 -0 0 0 0 0 0 0 0 0 0 0 0 0 0 0 0 0 0 0 0 0 0 0 0 0 0 0 0 -0 0 0 0 0 0 0 0 0
-0 0 0 -0 -0 -0 -0 -0 -0 -0 -0 0 0 0 0 0 0 0 0 0 0 0 0 0 0 0 0 0 0 0 0 0 0 0 0 0 0 0 0 0 0 0 0 0 0 0 0
0 -0 0 0 0 -0 -0 -0 -0 -0 -0 0 0 0 0 0 0 0 0 0 0 0 0 0 0 0 0 0 0 0 0 0 0 0 0 0 0 0 0 0 0 0 0 0 0 0 0
0 0 0 0 0 0 0 -0 -0 -0 -0 0 0 0 0 0 0 0 0 0 0 0 0 0 0 0 0 0 0 0 0 0 0 0 0 0 0 0 0 0 0 0 0 0 0 0 0
0 0 0 0 0 0 0 0 -0 -0 -0 -0 0 0 0 0 0 0 0 0 0 0 0 0 0 0 0 0 0 0 0 0 0 0 0 0 0 0 0 0 0 0 0 0 0 0 0
0 0 0 0 0 0 0 0 0 0 -0 -0 0 0 -0 0 0 0 0 0 0 0 0 0 0 0 0 0 0 0 0 0 0 0 0 0 0 0 0 0 0 0 0 0 0 1 1
0 0 0 0 0 0 0 0 0 0 0 0 0 0 0 0 0 0 0 0 0 0 0 0 0 0 0 0 0 0 0 0 0 0 0 0 0 0 0 0 0 0 0 0 0 0 0
0 0 0 0 0 0 0 0 0 0 0 0 -0 0 0 -0 0 0 0 0 0 0 0 0 0 0 0 0 0 0 0 0 0 0 0 0 0 0 0 0 0 0 0 0 0 0 0
Wind_Speed_500mb
43 42 40 38 35 32 28 24 21 19 17 16 14 13 13 12 10 10 10 10 10 10 10 10 8 9 7 11 9 12 11 16 22 21 13 8 8 5 7 10 15 9 21 23 23 8 15
47 46 45 43 40 37 34 31 27 23 20 18 16 15 14 13 11 10 10 10 10 11 11 10 8 7 5 19 17 15 7 15 23 21 14 9 3 4 11 10 11 23 25 20 7 7 8
49 49 49 48 47 44 41 36 33 30 26 22 20 17 15 14 12 11 10 10 10 11 11 10 8 7 11 13 13 18 11 14 21 17 12 8 4 11 11 12 15 21 21 15 7 3 4
48 50 50 50 50 49 47 44 40 35 29 25 23 21 17 14 12 12 10 10 10 11 11 10 7 5 9 14 21 19 17 13 19 13 9 8 5 9 12 17 16 14 14 10 8 5 4
47 49 49 50 51 51 50 50 47 41 35 29 27 23 20 16 12 12 10 9 8 9 10 8 4 4 6 7 14 18 18 10 15 14 9 10 5 11 18 17 19 13 12 16 11 5 13
46 49 50 50 51 52 53 52 52 48 41 32 29 26 22 17 12 11 10 7 6 7 9 6 9 8 8 14 16 24 20 16 11 19 15 14 15 20 17 18 11 8 15 16 19 7 16
44 48 51 52 52 52 55 55 55 53 46 38 31 26 22 17 12 13 14 8 2 4 16 6 4 3 15 11 23 21 22 17 14 21 23 20 20 24 18 5 13 17 21 22 24 14 16
43 48 52 54 55 53 56 57 58 56 51 39 30 23 18 16 14 16 19 10 7 4 7 16 14 9 7 9 20 24 24 22 18 21 12 15 26 23 4 11 15 18 22 18 15 3 14
44 48 52 55 56 55 56 58 60 59 51 42 28 18 13 12 14 19 24 18 10 7 10 9 12 11 12 14 14 34 33 22 19 17 22 26 10 5 12 15 19 25 17 16 22 22 11
45 48 52 55 56 55 57 58 61 60 48 36 23 13 6 10 10 17 18 23 16 6 12 12 14 11 14 12 14 22 31 22 13 16 10 15 11 13 18 17 14 27 8 15 21 20 16
46 49 52 55 55 55 57 59 61 59 43 33 18 8 8 20 19 20 14 19 16 6 12 12 14 12 17 12 30 20 27 20 10 10 14 12 14 18 20 19 11 19 10 22 20 25 10
46 49 52 53 54 55 57 59 61 57 39 25 13 2 16 20 21 15 11 21 17 12 9 14 14 22 24 16 15 22 25 18 7 15 19 22 9 14 22 16 17 20 27 31 24 18 17
44 47 50 51 53 55 58 60 60 55 37 18 9 8 22 25 9 10 30 9 12 8 8 16 18 23 28 20 16 22 26 28 16 15 16 15 27 18 19 26 27 22 31 17 9 14 4
43 46 47 49 53 56 59 61 60 54 34 11 6 15 23 17 12 22 19 12 5 5 10 9 13 23 20 21 16 19 23 20 22 18 14 9 17 24 19 15 20 12 17 14 10 7 7
42 44 46 49 53 56 59 61 59 51 29 9 15 21 17 16 11 13 13 13 8 7 3 15 23 25 17 19 7 17 19 11 6 17 10 4 8 13 16 9 14 14 13 15 18 13 15
42 44 47 50 54 56 58 61 59 48 22 12 18 14 6 12 8 6 13 7 6 7 1 9 15 9 20 23 18 15 13 4 2 6 23 6 13 6 16 8 8 17 9 13 9 6 10
42 45 47 51 53 55 57 60 59 46 17 13 14 8 9 8 4 13 3 10 4 9 1 5 7 13 10 13 6 6 8 11 7 1 11 16 13 7 9 23 7 11 17 13 15 10 17
41 45 47 51 54 54 56 58 58 46 19 8 5 5 12 2 12 4 3 5 3 6 5 5 6 11 6 3 4 5 4 8 9 7 4 5 12 18 26 11 11 20 24 16 13 11 5
40 44 47 50 53 54 55 56 57 48 25 9 1 9 5 2 7 8 8 8 10 9 11 5 6 10 4 5 4 3 3 8 9 8 12 5 12 17 27 23 18 15 16 22 17 12 15
41 42 46 47 51 52 55 56 55 47 29 6 3 7 8 2 3 6 5 5 7 13 15 10 7 3 4 3 2 0 4 5 5 8 5 6 25 21 25 30 15 15 16 20 27 21 18
41 42 43 44 47 49 52 55 54 47 32 7 9 7 3 6 7 4 3 2 3 3 6 8 6 6 3 6 8 10 7 10 11 3 8 11 26 29 27 28 26 27 33 33 27 33 29
37 40 39 40 43 46 48 53 55 49 27 24 8 6 2 5 1 6 4 4 2 6 7 5 0 2 3 8 8 16 8 9 10 4 11 11 20 18 32 32 28 33 32 34 35 34 24
34 36 36 35 38 41 43 47 52 52 41 21 15 11 5 2 2 8 5 2 3 6 5 6 7 10 8 7 12 18 20 24 24 19 19 17 15 16 32 30 19 28 36 38 38 35 27
33 32 31 30 32 35 38 40 44 47 47 31 31 10 8 5 3 5 1 4 4 7 9 6 7 9 8 17 22 25 29 27 24 24 27 18 13 15 17 11 24 5 12 12 18 24 15
31 29 27 26 27 30 33 35 36 37 37 33 35 13 9 2 5 5 2 5 10 8 14 13 7 6 13 15 16 12 12 10 10 8 7 18 16 11 11 19 21 18 7 10 12 8 4
30 27 25 24 24 24 27 30 31 31 30 27 28 27 7 11 8 2 5 5 10 7 11 9 4 8 10 15 10 12 9 5 9 14 6 7 18 15 7 17 15 16 9 7 7 14 9
30 26 23 22 22 21 23 25 26 27 27 25 22 25 10 8 1 3 7 6 4 6 9 7 5 9 10 11 15 15 14 1 10 12 11 16 12 23 18 17 2 12 10 4 17 7 7
28 25 23 21 21 20 20 22 22 22 22 23 17 22 15 9 15 7 5 9 10 10 10 7 11 12 10 10 8 6 11 6 10 3 7 11 10 12 13 15 22 12 6 12 10 7 8
27 25 23 21 20 21 19 21 21 19 19 20 11 24 22 8 13 26 27 29 27 19 16 8 10 4 8 7 5 4 10 7 7 10 7 10 7 12 7 10 6 10 10 3 4 3 7
Wind_Direction_500mb
36 33 29 27 21 16 12 5 357 350 342 334 324 310 299 295 291 283 274 264 254 248 248 255 262 261 240 237 237 201 202 204 194 202 206 226 244 252 286 340 326 263 335 320 331 286 239
38 35 31 28 23 17 11 5 357 347 337 330 322 312 300 289 283 277 270 261 251 241 239 246 253 251 238 238 226 204 217 191 190 187 196 215 252 303 282 316 323 327 308 310 338 359 228
37 34 31 27 24 19 12 6 360 350 340 329 321 314 305 291 277 267 265 260 249 239 234 235 245 253 249 232 217 198 177 172 180 183 196 200 228 263 320 297 335 310 305 295 21 8 286
32 29 26 23 19 16 13 7 0 351 339 327 317 310 304 292 275 259 255 254 247 236 228 229 239 251 248 227 211 183 166 163 172 185 194 183 222 271 293 302 267 300 277 307 59 272 106
26 23 20 18 15 11 8 4 360 354 343 329 316 307 300 293 276 252 242 248 248 226 221 226 250 226 175 211 171 182 165 169 164 172 169 183 205 259 261 271 269 210 309 324 343 282 310
19 17 14 12 9 7 4 360 356 352 343 331 317 306 298 287 270 249 226 226 232 222 214 226 234 241 191 156 163 166 162 154 172 169 171 204 224 237 228 246 260 350 307 310 315 350 280
12 11 9 8 4 3 1 357 354 350 343 332 317 303 292 281 263 230 201 174 158 220 210 256 129 5 119 140 153 167 167 164 169 197 213 204 230 222 243 36 297 293 296 298 304 10 304
6 4 4 3 1 359 358 355 353 349 343 336 321 301 279 263 245 219 196 193 243 153 191 231 242 251 190 146 168 175 173 196 204 213 205 207 229 242 234 253 264 266 281 294 306 100 300
360 358 359 359 358 357 356 354 352 349 345 339 327 307 270 238 217 207 202 201 195 185 249 160 205 215 191 192 203 180 186 200 212 210 216 250 75 75 209 224 247 250 264 314 335 320 227
355 354 355 356 356 356 356 355 352 350 348 346 338 320 250 185 184 192 201 203 191 186 227 127 175 167 178 192 164 168 189 189 200 241 208 247 204 233 236 240 253 282 59 295 309 308 336
350 351 352 354 355 356 356 355 353 351 349 347 343 330 182 170 154 142 193 179 186 200 185 145 144 161 175 219 131 176 190 208 218 165 234 109 191 216 233 242 295 286 300 301 294 290 290
346 349 351 353 355 356 356 356 354 352 351 346 350 14 158 152 146 158 168 154 152 228 109 141 141 178 178 188 154 147 185 218 273 251 234 270 244 265 251 273 243 281 274 259 248 266 245
346 349 352 354 357 357 357 356 355 353 354 348 4 127 153 150 156 151 146 147 214 269 167 150 172 177 191 165 151 178 188 202 227 219 205 201 221 226 241 249 236 240 261 276 249 193 47
350 352 355 356 357 358 357 357 358 355 359 13 62 136 150 150 120 142 156 230 218 110 98 121 166 169 183 159 165 175 190 218 216 267 284 291 159 196 170 257 307 262 311 301 294 263 34
355 356 357 358 358 359 358 358 359 359 5 66 105 127 141 156 131 156 238 232 70 66 67 155 154 164 165 179 247 199 220 253 331 210 264 229 197 146 201 267 260 137 233 0 289 205 251
358 358 358 359 359 360 360 359 360 2 11 118 134 117 149 172 176 192 253 64 92 12 312 209 164 246 161 174 205 209 172 85 248 272 269 341 272 201 129 200 205 267 360 242 196 276 282
359 359 359 359 360 1 1 1 360 4 15 161 149 183 178 159 179 229 266 67 66 52 301 277 161 152 123 146 245 179 142 102 8 283 259 274 254 163 206 211 291 177 225 224 300 302 310
357 358 359 359 0 2 3 3 0 3 17 157 192 196 173 136 218 248 144 24 344 44 73 117 50 72 81 83 154 170 166 35 20 335 271 223 287 266 272 92 290 273 286 273 254 196 221
353 355 357 358 1 4 6 6 3 3 12 134 167 112 177 16 218 174 126 119 39 43 50 44 92 32 61 74 240 276 137 112 29 9 5 25 254 273 252 178 190 230 213 261 278 293 264
350 352 354 357 360 3 6 9 8 6 9 121 230 170 162 115 62 302 169 109 125 50 63 58 80 114 162 182 74 46 197 138 351 340 0 256 268 268 281 314 331 283 235 233 269 281 289
345 348 351 355 359 3 6 9 13 13 15 83 15 61 356 162 120 38 285 326 165 114 62 34 94 62 9 261 254 257 273 270 216 126 238 277 272 273 272 271 275 276 273 271 250 272 280
339 344 346 352 357 2 6 10 15 23 35 50 36 347 52 72 3 243 165 68 333 98 340 111 97 98 306 283 318 309 303 277 291 207 256 277 274 275 270 267 262 267 261 259 256 252 257
330 336 341 347 354 360 6 11 16 25 39 49 31 18 335 87 217 248 66 35 50 337 120 48 346 290 254 18 324 301 287 282 277 279 284 277 277 266 267 269 278 268 252 248 254 249 247
318 326 333 340 349 356 4 9 16 22 31 41 28 26 312 101 278 35 298 329 283 336 303 319 309 283 34 315 296 267 260 263 267 259 246 254 251 259 276 282 249 305 15 335 283 278 268
305 314 321 330 341 350 358 5 12 20 26 33 31 36 359 41 348 150 181 295 277 252 256 273 263 285 312 292 280 268 207 214 198 201 227 227 241 263 253 243 269 227 72 343 330 213 82
294 299 307 316 327 340 350 359 4 12 18 29 26 27 13 314 83 28 321 310 296 281 239 234 234 285 269 266 245 249 255 357 210 175 233 208 230 247 223 278 271 68 48 340 303 236 76
286 285 291 301 313 327 339 351 359 5 13 19 17 19 23 315 351 281 306 332 300 277 275 246 287 240 225 244 250 253 253 341 241 244 180 200 220 232 237 255 281 49 1 314 240 55 38
279 273 278 285 298 311 326 337 351 359 4 11 2 7 20 308 292 242 221 242 258 258 280 44 261 200 238 245 267 199 259 163 258 301 264 252 247 221 243 266 248 30 231 306 48 64 16
275 264 266 270 283 297 313 328 338 349 357 2 355 352 346 271 278 279 266 255 244 249 273 240 325 309 343 271 227 297 228 211 311 259 180 252 288 330 286 37 66 343 320 318 319 349 354
Wind_Speed_850mb
43 42 40 38 35 32 28 24 21 19 17 16 14 13 13 12 10 10 10 10 10 10 10 10 8 9 7 11 9 12 11 16 22 21 13 8 8 5 7 10 15 9 21 23 23 8 15
47 46 45 43 40 37 34 31 27 23 20 18 16 15 14 13 11 10 10 10 10 11 11 10 8 7 5 19 17 15 7 15 23 21 14 9 3 4 11 10 11 23 25 20 7 7 8
49 49 49 48 47 44 41 36 33 30 26 22 20 17 15 14 12 11 10 10 10 11 11 10 8 7 11 13 13 18 11 14 21 17 12 8 4 11 11 12 15 21 21 15 7 3 4
48 50 50 50 50 49 47 44 40 35 29 25 23 21 17 14 12 12 10 10 10 11 11 10 7 5 9 14 21 19 17 13 19 13 9 8 5 9 12 17 16 14 14 10 8 5 4
47 49 49 50 51 51 50 50 47 41 35 29 27 23 20 16 12 12 10 9 8 9 10 8 4 4 6 7 14 18 18 10 15 14 9 10 5 11 18 17 19 13 12 16 11 5 13
46 49 50 50 51 52 53 52 52 48 41 32 29 26 22 17 12 11 10 7 6 7 9 6 9 8 8 14 16 24 20 16 11 19 15 14 15 20 17 18 11 8 15 16 19 7 16
44 48 51 52 52 52 55 55 55 53 46 38 31 26 22 17 12 13 14 8 2 4 16 6 4 3 15 11 23 21 22 17 14 21 23 20 20 24 18 5 13 17 21 22 24 14 16
43 48 52 54 55 53 56 57 58 56 51 39 30 23 18 16 14 16 19 10 7 4 7 16 14 9 7 9 20 24 24 22 18 21 12 15 26 23 4 11 15 18 22 18 15 3 14
44 48 52 55 56 55 56 58 60 59 51 42 28 18 13 12 14 19 24 18 10 7 10 9 12 11 12 14 14 34 33 22 19 17 22 26 10 5 12 15 19 25 17 16 22 22 11
45 48 52 55 56 55 57 58 61 60 48 36 23 13 6 10 10 17 18 23 16 6 12 12 14 11 14 12 14 22 31 22 13 16 10 15 11 13 18 17 14 27 8 15 21 20 16
46 49 52 55 55 55 57 59 61 59 43 33 18 8 8 20 19 20 14 19 16 6 12 12 14 12 17 12 30 20 27 20 10 10 14 12 14 18 20 19 11 19 10 22 20 25 10
46 49 52 53 54 55 57 59 61 57 39 25 13 2 16 20 21 15 11 21 17 12 9 14 14 22 24 16 15 22 25 18 7 15 19 22 9 14 22 16 17 20 27 31 24 18 17
44 47 50 51 53 55 58 60 60 55 37 18 9 8 22 25 9 10 30 9 12 8 8 16 18 23 28 20 16 22 26 28 16 15 16 15 27 18 19 26 27 22 31 17 9 14 4
43 46 47 49 53 56 59 61 60 54 34 11 6 15 23 17 12 22 19 12 5 5 10 9 13 23 20 21 16 19 23 20 22 18 14 9 17 24 19 15 20 12 17 14 10 7 7
42 44 46 49 53 56 59 61 59 51 29 9 15 21 17 16 11 13 13 13 8 7 3 15 23 25 17 19 7 17 19 11 6 17 10 4 8 13 16 9 14 14 13 15 18 13 15
42 44 47 50 54 56 58 61 59 48 22 12 18 14 6 12 8 6 13 7 6 7 1 9 15 9 20 23 18 15 13 4 2 6 23 6 13 6 16 8 8 17 9 13 9 6 10
42 45 47 51 53 55 57 60 59 46 17 13 14 8 9 8 4 13 3 10 4 9 1 5 7 13 10 13 6 6 8 11 7 1 11 16 13 7 9 23 7 11 17 13 15 10 17
41 45 47 51 54 54 56 58 58 46 19 8 5 5 12 2 12 4 3 5 3 6 5 5 6 11 6 3 4 5 4 8 9 7 4 5 12 18 26 11 11 20 24 16 13 11 5
40 44 47 50 53 54 55 56 57 48 25 9 1 9 5 2 7 8 8 8 10 9 11 5 6 10 4 5 4 3 3 8 9 8 12 5 12 17 27 23 18 15 16 22 17 12 15
41 42 46 47 51 52 55 56 55 47 29 6 3 7 8 2 3 6 5 5 7 13 15 10 7 3 4 3 2 0 4 5 5 8 5 6 25 21 25 30 15 15 16 20 27 21 18
41 42 43 44 47 49 52 55 54 47 32 7 9 7 3 6 7 4 3 2 3 3 6 8 6 6 3 6 8 10 7 10 11 3 8 11 26 29 27 28 26 27 33 33 27 33 29
37 40 39 40 43 46 48 53 55 49 27 24 8 6 2 5 1 6 4 4 2 6 7 5 0 2 3 8 8 16 8 9 10 4 11 11 20 18 32 32 28 33 32 34 35 34 24
34 36 36 35 38 41 43 47 52 52 41 21 15 11 5 2 2 8 5 2 3 6 5 6 7 10 8 7 12 18 20 24 24 19 19 17 15 16 32 30 19 28 36 38 38 35 27
33 32 31 30 32 35 38 40 44 47 47 31 31 10 8 5 3 5 1 4 4 7 9 6 7 9 8 17 22 25 29 27 24 24 27 18 13 15 17 11 24 5 12 12 18 24 15
31 29 27 26 27 30 33 35 36 37 37 33 35 13 9 2 5 5 2 5 10 8 14 13 7 6 13 15 16 12 12 10 10 8 7 18 16 11 11 19 21 18 7 10 12 8 4
30 27 25 24 24 24 27 30 31 31 30 27 28 27 7 11 8 2 5 5 10 7 11 9 4 8 10 15 10 12 9 5 9 14 6 7 18 15 7 17 15 16 9 7 7 14 9
30 26 23 22 22 21 23 25 26 27 27 25 22 25 10 8 1 3 7 6 4 6 9 7 5 9 10 11 15 15 14 1 10 12 11 16 12 23 18 17 2 12 10 4 17 7 7
28 25 23 21 21 20 20 22 22 22 22 23 17 22 15 9 15 7 5 9 10 10 10 7 11 12 10 10 8 6 11 6 10 3 7 11 10 12 13 15 22 12 6 12 10 7 8
27 25 23 21 20 21 19 21 21 19 19 20 11 24 22 8 13 26 27 29 27 19 16 8 10 4 8 7 5 4 10 7 7 10 7 10 7 12 7 10 6 10 10 3 4 3 7
Wind_Direction_850mb
36 33 29 27 21 16 12 5 357 350 342 334 324 310 299 295 291 283 274 264 254 248 248 255 262 261 240 237 237 201 202 204 194 202 206 226 244 252 286 340 326 263 335 320 331 286 239
38 35 31 28 23 17 11 5 357 347 337 330 322 312 300 289 283 277 270 261 251 241 239 246 253 251 238 238 226 204 217 191 190 187 196 215 252 303 282 316 323 327 308 310 338 359 228
37 34 31 27 24 19 12 6 360 350 340 329 321 314 305 291 277 267 265 260 249 239 234 235 245 253 249 232 217 198 177 172 180 183 196 200 228 263 320 297 335 310 305 295 21 8 286
32 29 26 23 19 16 13 7 0 351 339 327 317 310 304 292 275 259 255 254 247 236 228 229 239 251 248 227 211 183 166 163 172 185 194 183 222 271 293 302 267 300 277 307 59 272 106
26 23 20 18 15 11 8 4 360 354 343 329 316 307 300 293 276 252 242 248 248 226 221 226 250 226 175 211 171 182 165 169 164 172 169 183 205 259 261 271 269 210 309 324 343 282 310
19 17 14 12 9 7 4 360 356 352 343 331 317 306 298 287 270 249 226 226 232 222 214 226 234 241 191 156 163 166 162 154 172 169 171 204 224 237 228 246 260 350 307 310 315 350 280
12 11 9 8 4 3 1 357 354 350 343 332 317 303 292 281 263 230 201 174 158 220 210 256 129 5 119 140 153 167 167 164 169 197 213 204 230 222 243 36 297 293 296 298 304 10 304
6 4 4 3 1 359 358 355 353 349 343 336 321 301 279 263 245 219 196 193 243 153 191 231 242 251 190 146 168 175 173 196 204 213 205 207 229 242 234 253 264 266 281 294 306 100 300
360 358 359 359 358 357 356 354 352 349 345 339 327 307 270 238 217 207 202 201 195 185 249 160 205 215 191 192 203 180 186 200 212 210 216 250 75 75 209 224 247 250 264 314 335 320 227
355 354 355 356 356 356 356 355 352 350 348 346 338 320 250 185 184 192 201 203 191 186 227 127 175 167 178 192 164 168 189 189 200 241 208 247 204 233 236 240 253 282 59 295 309 308 336
350 351 352 354 355 356 356 355 353 351 349 347 343 330 182 170 154 142 193 179 186 200 185 145 144 161 175 219 131 176 190 208 218 165 234 109 191 216 233 242 295 286 300 301 294 290 290
346 349 351 353 355 356 356 356 354 352 351 346 350 14 158 152 146 158 168 154 152 228 109 141 141 178 178 188 154 147 185 218 273 251 234 270 244 265 251 273 243 281 274 259 248 266 245
346 349 352 354 357 357 357 356 355 353 354 348 4 127 153 150 156 151 146 147 214 269 167 150 172 177 191 165 151 178 188 202 227 219 205 201 221 226 241 249 236 240 261 276 249 193 47
350 352 355 356 357 358 357 357 358 355 359 13 62 136 150 150 120 142 156 230 218 110 98 121 166 169 183 159 165 175 190 218 216 267 284 291 159 196 170 257 307 262 311 301 294 263 34
355 356 357 358 358 359 358 358 359 359 5 66 105 127 141 156 131 156 238 232 70 66 67 155 154 164 165 179 247 199 220 253 331 210 264 229 197 146 201 267 260 137 233 0 289 205 251
358 358 358 359 359 360 360 359 360 2 11 118 134 117 149 172 176 192 253 64 92 12 312 209 164 246 161 174 205 209 172 85 248 272 269 341 272 201 129 200 205 267 360 242 196 276 282
359 359 359 359 360 1 1 1 360 4 15 161 149 183 178 159 179 229 266 67 66 52 301 277 161 152 123 146 245 179 142 102 8 283 259 274 254 163 206 211 291 177 225 224 300 302 310
357 358 359 359 0 2 3 3 0 3 17 157 192 196 173 136 218 248 144 24 344 44 73 117 50 72 81 83 154 170 166 35 20 335 271 223 287 266 272 92 290 273 286 273 254 196 221
353 355 357 358 1 4 6 6 3 3 12 134 167 112 177 16 218 174 126 119 39 43 50 44 92 32 61 74 240 276 137 112 29 9 5 25 254 273 252 178 190 230 213 261 278 293 264
350 352 354 357 360 3 6 9 8 6 9 121 230 170 162 115 62 302 169 109 125 50 63 58 80 114 162 182 74 46 197 138 351 340 0 256 268 268 281 314 331 283 235 233 269 281 289
345 348 351 355 359 3 6 9 13 13 15 83 15 61 356 162 120 38 285 326 165 114 62 34 94 62 9 261 254 257 273 270 216 126 238 277 272 273 272 271 275 276 273 271 250 272 280
339 344 346 352 357 2 6 10 15 23 35 50 36 347 52 72 3 243 165 68 333 98 340 111 97 98 306 283 318 309 303 277 291 207 256 277 274 275 270 267 262 267 261 259 256 252 257
330 336 341 347 354 360 6 11 16 25 39 49 31 18 335 87 217 248 66 35 50 337 120 48 346 290 254 18 324 301 287 282 277 279 284 277 277 266 267 269 278 268 252 248 254 249 247
318 326 333 340 349 356 4 9 16 22 31 41 28 26 312 101 278 35 298 329 283 336 303 319 309 283 34 315 296 267 260 263 267 259 246 254 251 259 276 282 249 305 15 335 283 278 268
305 314 321 330 341 350 358 5 12 20 26 33 31 36 359 41 348 150 181 295 277 252 256 273 263 285 312 292 280 268 207 214 198 201 227 227 241 263 253 243 269 227 72 343 330 213 82
294 299 307 316 327 340 350 359 4 12 18 29 26 27 13 314 83 28 321 310 296 281 239 234 234 285 269 266 245 249 255 357 210 175 233 208 230 247 223 278 271 68 48 340 303 236 76
286 285 291 301 313 327 339 351 359 5 13 19 17 19 23 315 351 281 306 332 300 277 275 246 287 240 225 244 250 253 253 341 241 244 180 200 220 232 237 255 281 49 1 314 240 55 38
279 273 278 285 298 311 326 337 351 359 4 11 2 7 20 308 292 242 221 242 258 258 280 44 261 200 238 245 267 199 259 163 258 301 264 252 247 221 243 266 248 30 231 306 48 64 16
275 264 266 270 283 297 313 328 338 349 357 2 355 352 346 271 278 279 266 255 244 249 273 240 325 309 343 271 227 297 228 211 311 259 180 252 288 330 286 37 66 343 320 318 319 349 354